Theta_e
336 336 338 342 343 343 343 341 341 341 341 342 343 343 343 342 341 341 340 339 338 336 337 337 336 336 337 336 332 330 332 335 335 334 334 334 334 336 334 331 329 326 327 329 328 332 335 334 330 328 332 335 334 334 333 330 328 328 329 329 329 332 332 332 332 331 330 329 329 327 328 329 329 329 329 329 329 328 326 326 325 324 324 324 324
334 335 337 341 343 342 343 342 341 341 341 343 344 343 343 342 340 341 340 339 338 337 338 337 335 335 337 335 332 331 332 333 333 333 333 332 333 335 333 330 330 326 327 331 332 334 334 332 331 331 333 334 334 334 331 328 328 329 329 329 330 332 333 331 330 330 329 329 329 327 328 328 328 328 329 328 329 328 327 326 326 325 324 325 325
331 332 337 342 343 342 343 343 342 342 341 342 344 343 342 341 340 342 341 340 339 337 337 337 335 336 337 335 333 332 332 332 332 331 332 330 331 334 332 330 330 328 329 333 334 334 332 330 331 331 333 333 333 333 330 328 328 329 330 331 331 331 332 330 329 330 330 330 329 328 328 328 328 328 328 327 327 327 326 326 326 326 325 326 326
332 332 338 342 343 343 343 344 343 342 341 341 342 342 342 341 340 341 340 339 339 337 337 336 336 336 336 334 332 331 332 331 331 331 331 330 331 333 331 330 331 330 332 334 333 332 330 329 331 331 332 333 331 331 330 330 330 330 331 332 332 332 332 331 329 329 329 328 329 330 329 329 329 329 328 328 326 326 327 326 326 326 326 326 326
332 334 337 340 342 343 343 343 342 342 343 342 341 340 341 342 341 339 338 338 339 337 336 336 336 335 334 333 331 330 331 331 331 331 330 329 328 330 332 331 331 332 333 334 333 333 330 329 331 331 331 331 330 330 330 331 332 332 332 332 332 332 332 331 329 328 328 328 327 329 330 329 330 329 328 328 327 327 327 327 326 326 326 325 326
331 333 335 334 338 342 343 343 342 342 344 344 342 340 340 342 340 339 338 338 339 338 336 336 335 335 334 332 331 330 331 330 330 330 328 325 326 331 333 333 333 332 333 334 334 333 330 329 330 331 330 329 329 330 331 331 332 332 332 331 331 332 332 331 330 328 328 328 326 327 329 329 329 328 328 328 328 327 327 327 326 326 326 325 326
332 334 334 332 334 341 343 343 342 343 344 344 343 341 340 340 339 339 339 338 338 338 336 335 334 335 334 332 331 331 331 330 331 330 326 325 328 332 333 333 333 332 332 333 333 331 330 329 329 330 332 330 329 329 330 331 331 332 332 331 332 331 330 331 332 329 327 328 326 326 328 328 328 328 328 328 328 327 328 327 326 326 326 325 326
331 333 334 332 335 341 343 343 343 343 343 343 342 341 340 339 337 339 339 337 337 337 336 334 334 334 333 331 331 330 330 331 330 330 328 326 330 333 332 331 330 330 330 331 331 330 329 329 328 329 331 331 330 330 329 331 331 332 332 331 331 330 328 330 331 330 328 327 328 328 327 326 326 327 327 328 329 329 328 327 327 326 326 326 326
330 333 333 334 337 342 343 343 343 342 342 341 341 340 339 338 336 338 338 336 335 336 335 334 333 333 333 332 330 328 330 331 328 328 327 327 331 333 332 331 331 330 330 330 330 329 329 330 329 330 330 330 331 331 330 331 331 331 331 330 330 329 327 328 329 330 330 329 328 327 326 326 327 327 327 327 328 328 328 328 328 327 326 326 324
330 335 334 333 336 342 342 341 342 341 342 341 340 338 337 336 335 336 337 336 335 335 335 335 333 333 333 333 331 330 332 331 327 327 327 327 330 332 331 331 332 331 330 331 330 329 328 328 328 329 330 329 330 330 330 330 330 330 330 329 329 328 327 328 328 329 329 329 329 328 327 328 329 329 328 327 327 328 328 328 328 328 327 326 323
330 336 333 332 337 341 341 341 341 341 341 340 339 336 335 335 335 336 337 334 334 334 334 334 333 332 332 332 332 331 331 330 327 327 328 327 328 330 332 332 331 330 330 329 327 326 324 324 325 326 328 329 329 330 330 331 332 331 329 327 328 328 328 328 327 327 328 329 331 329 327 327 329 329 329 328 328 328 328 328 328 328 327 325 323
334 337 336 336 339 340 340 340 339 339 339 338 335 334 334 334 333 334 332 330 330 332 333 333 332 332 332 331 331 329 329 329 327 326 325 324 325 329 331 331 330 328 326 325 324 323 322 322 323 324 327 329 330 330 330 331 332 332 329 328 327 327 328 327 325 326 326 327 328 328 326 327 327 328 328 328 328 328 328 328 328 327 326 324 321
337 338 338 338 339 339 339 339 338 337 338 335 333 332 332 333 332 331 328 326 326 328 331 333 333 333 331 331 330 328 328 327 325 323 322 323 327 330 331 330 329 326 323 322 321 320 322 323 323 323 326 328 328 329 330 331 331 332 330 328 328 327 327 328 327 326 325 324 326 327 327 328 327 328 328 327 327 328 327 327 327 326 325 322 320
338 338 339 338 338 338 337 337 336 336 336 335 334 333 332 332 332 330 327 325 325 325 327 332 333 332 331 330 329 329 329 327 325 323 322 326 330 330 330 330 329 327 325 323 320 319 321 324 324 325 326 326 327 327 328 329 329 330 331 329 328 328 327 328 328 327 326 325 325 327 327 327 327 328 328 326 326 327 327 327 326 325 323 320 319
336 338 337 336 337 337 336 336 335 335 335 335 334 333 332 331 329 328 326 325 325 325 326 331 333 332 330 329 328 329 328 326 325 323 324 329 330 328 328 330 329 329 327 324 321 319 320 321 320 322 323 323 327 327 327 329 328 328 330 328 327 327 327 327 327 327 327 326 327 327 327 326 327 328 328 326 326 326 327 327 325 324 321 319 318
335 335 335 336 336 335 335 334 334 334 334 334 334 333 332 330 328 327 327 327 325 326 329 332 331 329 329 328 326 326 326 325 325 325 327 329 329 327 328 329 329 329 328 326 325 323 321 321 320 321 323 323 325 325 325 327 326 326 329 328 326 327 326 326 327 326 326 327 328 327 327 328 327 327 328 327 327 326 326 326 325 323 321 319 317
334 334 334 335 334 334 334 333 334 334 334 334 333 332 331 330 329 329 328 327 326 328 332 332 330 328 329 329 326 325 325 325 326 327 328 328 328 328 328 328 329 328 328 327 327 324 321 323 325 325 326 326 325 323 323 324 324 326 328 328 328 327 325 325 326 325 326 326 326 326 327 327 327 327 328 327 327 326 326 327 326 323 321 319 318
332 333 332 333 333 333 333 332 333 333 333 333 333 332 332 331 330 329 328 327 327 329 332 332 329 327 329 329 327 326 326 326 327 326 326 326 326 326 326 328 328 328 328 326 325 323 319 323 327 325 325 326 325 325 324 323 323 326 327 328 329 327 325 326 325 324 326 326 326 326 325 326 326 327 328 327 327 326 325 326 326 323 321 321 319
331 332 331 332 332 332 332 332 332 331 332 332 332 332 332 331 331 329 328 327 327 330 331 331 329 327 327 327 326 324 324 326 328 326 323 323 321 321 325 328 328 328 327 324 324 324 322 324 327 325 325 325 325 325 324 324 324 326 327 328 328 327 327 329 327 325 326 325 326 326 326 327 327 327 327 326 326 325 324 324 324 323 322 321 320
331 331 331 332 331 332 332 332 331 331 332 332 332 331 331 331 332 331 329 328 329 331 331 330 330 328 326 324 322 323 325 327 327 324 321 320 318 322 327 327 327 327 325 323 324 326 325 325 326 325 325 326 325 325 325 325 325 325 326 326 326 325 327 329 328 327 327 326 326 326 326 327 326 326 326 325 326 326 324 324 323 322 322 321 320
330 331 331 331 331 331 331 331 331 332 332 332 331 331 331 331 331 331 330 330 330 331 330 330 328 325 323 321 322 325 327 327 326 323 321 319 320 325 328 326 326 326 324 324 325 325 325 326 325 325 325 325 326 325 325 325 324 324 325 325 324 324 325 325 326 326 327 327 327 326 326 326 326 327 327 326 326 325 324 325 324 322 322 321 321
329 330 329 329 330 330 330 330 331 331 332 332 331 331 332 332 330 330 330 330 329 330 330 328 325 323 321 322 323 325 327 327 324 322 320 321 322 326 326 326 327 326 324 325 325 324 325 325 325 325 325 325 325 324 324 325 325 325 325 324 323 323 324 324 324 325 326 328 328 327 327 327 326 327 328 327 327 326 325 325 323 321 321 320 320
328 328 328 329 329 329 330 330 330 330 331 331 331 331 332 331 330 329 330 329 329 329 329 327 325 323 321 323 325 325 326 325 322 320 321 322 325 327 327 326 327 325 324 325 325 324 325 325 325 325 325 324 324 323 324 325 325 325 324 324 324 324 324 324 324 324 324 327 328 327 327 326 325 327 328 327 327 327 326 324 322 320 319 318 319
326 327 327 328 328 329 329 329 328 329 329 330 330 330 330 330 330 330 330 330 330 330 329 327 325 323 322 325 326 325 326 324 320 321 323 324 327 328 327 327 327 326 326 326 324 322 323 324 324 324 324 324 324 323 323 324 324 324 324 323 323 323 324 323 323 323 322 325 327 327 327 326 325 327 327 326 326 326 324 322 321 319 317 317 317
324 324 325 325 326 327 327 328 328 328 328 329 329 329 329 329 330 331 330 331 331 330 329 327 325 325 326 327 327 327 326 322 321 323 325 326 328 328 327 327 327 326 326 325 322 321 322 322 322 323 324 324 323 323 323 323 323 323 324 323 322 322 323 323 322 322 322 323 326 327 327 327 327 328 327 326 325 324 322 321 321 319 317 317 317
321 322 322 322 323 325 326 327 327 328 328 328 328 329 329 328 329 331 331 331 331 329 328 327 326 327 328 327 327 329 328 325 324 325 326 327 328 328 328 327 326 325 324 322 320 320 320 320 320 322 322 322 322 322 322 322 322 322 323 323 323 322 322 322 321 322 322 323 324 327 328 326 326 328 327 325 324 323 322 321 320 319 318 317 317
319 318 318 319 321 323 325 325 326 327 327 328 328 329 329 327 328 331 331 330 329 327 326 326 325 326 328 327 327 328 327 325 324 325 326 327 327 327 327 326 324 323 320 319 320 320 320 319 319 319 319 319 320 319 320 320 320 321 321 323 323 323 322 322 321 321 322 323 324 327 327 324 326 327 325 323 322 321 321 321 320 319 318 318 318
316 316 316 316 318 321 323 325 325 326 326 326 327 328 329 328 328 329 330 329 328 326 324 323 323 325 326 327 328 327 325 324 325 324 324 326 326 326 325 324 323 321 319 320 320 320 320 320 319 319 319 318 317 317 317 317 318 319 320 321 323 323 322 322 322 322 322 322 323 327 327 326 327 326 324 322 322 321 321 320 320 320 319 319 319
313 313 314 314 316 318 320 322 325 326 325 325 325 326 328 328 328 328 328 327 327 326 324 322 323 325 326 325 325 324 321 322 325 324 323 324 325 325 324 322 322 321 321 320 319 319 319 318 318 318 319 318 317 316 316 316 317 319 319 320 321 322 321 321 321 321 322 322 322 324 326 326 326 326 324 322 321 321 321 321 321 321 321 320 320
310 311 312 313 314 316 317 320 324 325 324 324 325 325 327 327 327 327 328 327 327 327 327 325 325 326 326 324 322 322 321 321 324 324 324 325 324 323 322 321 321 320 320 319 318 318 318 317 318 318 316 315 316 317 316 316 317 317 318 318 319 320 321 321 320 320 321 321 322 322 323 324 324 324 322 321 320 320 320 320 321 321 321 321 320
308 308 309 311 313 314 316 318 321 322 323 323 324 325 325 326 326 325 327 327 327 327 328 327 326 326 327 326 324 325 325 324 325 325 325 325 324 322 321 320 319 318 317 317 319 319 319 319 319 317 312 308 310 312 313 312 313 316 318 319 318 319 320 320 320 319 320 321 321 321 320 320 321 320 318 318 318 318 317 318 320 320 320 320 320
306 306 307 308 310 312 314 316 318 319 320 321 322 324 324 325 325 324 324 325 326 327 326 326 326 326 325 325 324 325 325 325 325 325 325 325 324 321 318 316 314 312 312 314 316 318 318 317 317 314 310 309 309 309 309 308 308 312 317 319 319 319 319 319 320 319 319 319 321 321 319 318 318 317 316 316 316 315 315 315 316 316 316 316 318
305 304 305 306 307 308 310 312 314 315 316 317 319 322 323 324 324 324 323 322 322 322 322 323 323 324 324 324 323 323 323 323 324 324 324 323 320 316 313 313 313 313 314 315 315 316 316 315 314 313 313 313 313 312 312 311 309 310 311 313 317 319 318 318 319 319 318 319 319 320 320 318 318 317 316 316 316 315 314 314 314 313 313 312 313
303 303 304 304 305 306 307 310 312 312 312 314 317 320 322 322 322 322 321 319 319 319 319 320 321 321 322 322 322 321 321 321 323 323 323 321 317 314 313 314 316 317 317 317 316 316 316 314 313 313 313 314 314 314 314 314 313 312 310 310 316 319 318 319 319 319 320 320 319 320 320 320 320 318 316 317 318 318 317 315 313 312 312 311 311
302 302 303 304 305 305 306 309 311 311 311 312 315 317 319 320 320 321 320 320 320 320 320 320 320 320 319 319 319 320 319 320 321 321 321 318 315 314 315 316 318 318 317 316 316 316 315 314 314 313 313 313 314 314 314 314 314 314 313 312 314 316 317 318 319 319 320 320 320 320 321 320 321 321 319 317 317 319 320 319 317 315 314 314 314
302 302 302 302 304 304 305 307 310 311 311 313 314 315 317 318 318 319 319 320 321 321 320 320 320 320 320 320 320 320 320 320 320 319 318 316 315 315 316 317 318 317 316 316 316 316 316 315 316 316 315 315 315 314 314 314 314 315 315 315 316 317 318 319 319 319 318 319 319 319 319 319 320 320 320 318 316 317 318 319 320 320 319 319 319
302 301 301 301 302 303 304 306 309 310 311 313 314 315 316 317 316 316 317 318 319 319 319 319 320 320 320 320 321 320 320 320 319 318 317 316 316 317 318 318 318 318 318 318 318 318 317 317 317 317 317 317 317 316 315 315 316 316 316 316 318 319 321 321 321 320 319 319 320 318 317 318 319 319 318 317 315 314 314 314 317 319 319 319 319
301 301 301 300 301 301 302 305 307 308 308 310 312 313 315 316 315 315 315 316 316 316 317 318 318 318 319 319 319 319 319 319 319 319 318 318 318 318 318 319 319 319 319 318 319 319 318 318 318 318 318 318 318 318 318 317 318 317 317 317 317 318 319 321 321 321 321 321 321 318 317 317 318 318 318 316 315 314 314 314 315 317 319 319 319
300 300 300 299 300 301 301 302 303 304 305 306 307 309 312 313 312 312 313 315 314 313 314 315 315 315 316 316 316 317 317 317 318 318 318 317 317 318 318 317 317 317 317 317 317 317 317 317 317 317 318 318 317 317 317 317 318 318 318 318 317 317 318 319 319 319 319 320 319 319 318 318 317 317 317 317 316 316 316 316 315 316 317 318 319
301 301 301 300 301 301 301 301 301 301 301 302 303 305 307 308 308 308 309 308 308 307 309 312 314 315 315 315 314 314 314 315 315 315 316 316 316 316 316 316 316 316 316 315 315 315 316 316 316 316 316 315 315 315 315 315 315 315 315 315 315 316 316 316 317 317 316 316 317 317 317 317 317 317 317 317 317 317 317 317 317 317 317 318 318
301 301 302 302 302 302 301 301 301 301 300 300 300 301 301 302 304 305 304 302 301 303 305 307 309 310 311 311 312 312 313 312 312 311 312 312 312 311 311 311 311 312 312 311 310 311 311 312 311 310 310 309 310 310 310 310 310 310 310 309 309 310 311 311 312 312 312 312 313 315 315 314 314 314 314 315 315 315 315 316 316 316 317 318 318
301 301 301 302 303 303 303 303 303 302 301 301 300 300 299 299 299 299 298 298 299 300 300 301 302 302 303 304 305 306 307 307 306 304 304 304 304 304 304 304 304 304 304 304 303 303 303 304 303 303 303 303 304 304 304 304 305 305 305 304 305 305 305 305 306 306 306 308 309 311 312 312 311 310 310 310 309 309 309 310 310 311 312 313 315
299 299 300 301 301 302 302 302 303 303 303 302 302 301 300 299 299 298 297 298 298 298 298 298 298 299 299 299 300 300 301 301 301 300 300 300 300 300 300 300 301 302 302 302 301 301 301 302 303 303 303 301 301 301 301 301 301 301 301 301 301 302 302 302 302 302 302 302 304 306 307 306 306 305 305 304 304 304 304 304 305 305 306 307 309
299 298 298 298 299 299 299 300 301 302 303 303 302 302 301 300 299 298 298 298 298 298 298 298 298 299 299 298 298 298 299 299 299 299 299 299 299 300 300 300 301 304 306 305 304 304 304 305 305 306 305 304 302 300 299 299 300 299 299 300 300 299 300 300 299 299 299 299 300 301 301 301 301 301 300 300 300 300 300 300 300 301 301 302 303
299 298 298 298 297 297 298 298 298 299 300 300 301 301 301 301 299 299 299 299 298 298 298 298 298 299 299 298 298 298 298 299 298 298 299 299 299 301 302 302 302 304 305 305 305 305 305 305 305 306 306 305 303 301 299 298 298 298 298 298 298 298 298 298 298 298 298 298 298 298 298 298 298 298 298 298 298 298 298 298 298 299 298 299 299
299 298 298 298 297 297 297 297 297 297 297 298 298 298 299 300 299 299 299 299 299 299 299 298 298 298 298 298 298 298 298 298 298 298 298 299 300 303 304 304 305 305 305 304 304 304 304 305 305 305 305 305 304 303 303 300 298 298 298 298 298 298 298 298 298 298 298 297 298 298 298 298 298 298 298 297 297 297 297 297 297 297 297 297 298
299 299 299 298 298 297 296 296 296 297 297 297 297 297 297 297 298 298 298 298 298 298 298 298 298 298 298 298 298 298 298 298 298 299 299 299 301 303 303 303 303 304 305 305 305 305 305 305 305 305 305 305 305 305 304 300 298 298 298 298 298 298 298 298 298 298 298 298 298 298 298 298 298 299 299 300 300 300 300 301 301 302 302 302 303
298 298 298 298 298 298 297 297 297 297 296 296 297 297 297 297 297 297 297 297 297 297 297 298 298 298 297 297 298 298 298 298 298 298 298 297 299 300 300 299 298 299 300 302 304 303 303 303 304 304 304 305 305 304 302 299 298 298 298 298 298 298 298 298 298 298 298 298 297 298 299 300 301 302 303 303 303 303 304 305 305 306 306 306 306
298 298 298 298 298 298 299 299 298 298 297 297 297 296 296 297 297 297 297 297 297 297 298 297 298 298 298 298 298 298 298 298 299 298 297 297 297 298 297 297 297 297 297 298 300 300 299 299 301 301 302 302 303 301 299 298 298 298 298 298 298 298 298 298 298 298 298 298 298 300 302 303 303 304 304 303 303 304 303 304 304 304 305 305 305
299 299 299 299 299 299 299 299 299 299 299 299 298 297 297 297 297 297 297 297 297 298 298 298 297 298 299 300 299 299 300 300 300 301 300 298 297 297 297 297 298 298 298 298 298 298 298 298 299 299 299 299 299 298 297 298 298 298 298 298 298 298 298 298 298 298 298 299 301 302 302 303 302 302 302 302 302 302 302 303 303 303 303 304 304
300 300 299 299 299 299 299 299 299 299 299 299 299 299 298 298 298 298 298 298 299 299 299 299 298 298 299 300 300 300 300 301 301 301 302 301 299 298 298 297 298 298 298 298 298 298 298 298 298 298 297 297 297 297 297 297 297 298 298 298 298 298 298 298 298 299 299 301 302 302 302 302 301 301 302 302 302 302 302 302 303 303 303 303 304
Wind_Speed
13 15 17 19 22 21 19 21 21 20 20 20 21 23 23 23 23 23 25 26 26 26 24 23 25 23 18 17 18 18 18 17 15 15 14 15 14 14 15 16 15 16 16 15 14 13 11 11 12 12 10 9 9 9 9 10 9 9 9 9 9 8 8 9 10 10 8 8 7 7 8 7 5 4 4 4 6 9 11 12 13 12 11 11 10
12 14 17 19 22 23 21 21 22 21 21 20 21 22 22 24 24 22 23 25 24 24 24 23 23 22 18 17 18 19 20 18 17 17 16 17 17 16 17 16 15 16 16 14 13 13 13 13 12 11 11 10 10 9 10 10 9 10 9 9 9 9 9 11 11 9 8 8 8 7 7 6 5 4 3 4 6 8 9 12 12 11 11 10 9
14 18 21 20 22 25 24 22 22 21 22 21 21 21 23 26 25 23 21 21 21 23 23 21 20 19 16 16 17 18 18 17 18 19 18 17 17 18 18 16 15 15 14 13 13 14 15 14 12 11 11 11 12 11 10 10 10 10 10 8 8 9 9 10 10 9 8 9 9 8 7 7 6 4 3 3 5 6 8 11 11 10 10 10 10
19 23 22 20 22 25 24 22 22 20 21 22 22 24 25 26 26 23 21 21 22 24 23 21 20 19 16 15 15 16 17 17 18 19 18 16 16 16 16 16 14 13 13 13 13 14 14 13 12 12 12 12 12 10 9 9 9 10 10 10 8 8 8 9 10 11 10 10 9 7 7 7 6 5 5 4 4 5 6 8 9 9 9 9 10
21 22 18 18 22 24 23 22 24 22 21 22 24 28 26 23 22 21 23 25 25 25 23 21 20 18 18 18 17 17 17 18 19 19 18 18 18 16 13 14 14 12 12 12 12 13 13 13 12 12 13 12 11 9 7 8 9 9 10 10 10 8 9 9 10 11 9 10 10 6 5 6 5 7 7 5 4 5 5 6 6 7 9 8 7
22 19 17 19 22 25 24 22 24 24 23 23 23 26 24 20 18 20 25 26 22 24 25 22 19 19 19 20 20 19 19 20 20 19 19 20 19 17 13 12 13 13 13 13 13 13 12 12 13 11 11 11 11 9 8 9 10 9 10 11 11 10 10 8 9 12 10 10 10 8 5 3 4 8 7 6 6 5 5 6 6 6 8 7 7
25 21 19 21 24 28 27 23 25 25 24 25 23 21 20 18 17 19 25 25 20 20 23 22 22 21 20 19 19 19 19 20 19 15 16 19 18 16 14 13 14 14 14 14 14 13 10 11 12 11 10 10 10 11 11 11 10 9 10 10 9 11 12 8 8 12 12 10 8 8 6 3 5 9 8 7 7 6 5 6 7 7 7 6 7
25 25 22 23 27 29 28 25 24 22 24 25 23 20 19 19 17 16 20 21 20 18 17 20 23 21 20 20 18 17 17 19 19 14 15 18 16 14 14 14 14 13 12 12 12 11 9 9 10 10 10 9 9 10 11 11 11 11 11 10 9 11 11 10 10 11 12 11 8 7 6 5 6 7 7 7 7 7 7 6 6 6 5 5 7
21 27 25 24 27 27 26 24 20 19 23 24 23 20 18 18 16 15 16 14 17 17 16 20 24 22 20 20 20 20 20 20 19 16 16 18 16 14 14 13 13 12 11 11 10 10 10 9 9 9 9 9 8 8 8 9 11 12 12 11 11 11 10 11 12 11 11 12 10 8 6 7 8 6 6 8 8 8 9 9 7 7 7 6 8
17 22 22 23 24 21 20 21 19 18 21 23 22 17 13 12 11 16 19 14 15 17 15 17 22 23 23 22 23 23 23 22 20 18 19 18 15 14 13 12 12 12 11 11 11 10 10 10 10 9 8 8 8 8 8 9 10 12 13 13 12 12 11 11 11 12 12 10 9 9 9 10 10 7 6 8 8 8 9 11 9 9 10 9 8
17 18 20 22 21 16 15 18 16 14 15 15 15 12 10 12 12 15 18 12 13 15 12 13 18 22 24 23 23 23 23 22 20 20 20 17 15 15 14 13 12 12 11 11 11 11 11 10 10 9 8 8 8 8 8 8 9 10 12 13 13 12 10 10 10 11 11 10 8 10 12 12 10 8 7 7 8 8 9 12 11 11 12 10 9
13 15 17 18 16 13 13 13 11 9 9 7 4 4 9 15 14 10 10 8 8 10 10 13 19 23 24 23 22 21 21 21 20 21 20 18 17 16 14 13 12 12 12 11 11 12 12 11 10 9 8 8 7 8 8 8 8 9 10 11 12 12 11 11 11 10 11 11 11 12 12 12 11 9 8 9 9 9 10 13 13 13 12 11 11
8 10 11 12 13 13 11 9 7 6 6 8 8 7 9 13 12 12 17 13 9 9 10 16 21 24 23 22 21 20 21 21 20 20 20 19 19 16 13 12 12 12 12 11 11 12 12 11 10 9 8 8 7 8 8 8 8 8 8 10 11 12 12 11 11 11 12 11 12 12 12 11 11 8 8 10 11 10 11 13 14 14 12 12 12
6 8 8 9 10 11 9 7 6 5 5 8 8 8 9 10 13 18 19 13 11 11 11 17 23 25 24 22 21 22 22 21 20 19 19 19 17 15 13 12 11 11 12 12 11 11 11 10 10 9 9 8 8 8 8 7 8 7 7 9 10 11 12 12 11 11 13 13 12 13 12 13 12 8 7 10 12 13 12 13 14 13 12 12 12
7 9 9 8 10 9 8 8 7 5 7 9 8 10 12 13 17 20 15 9 10 12 15 22 27 28 27 25 23 23 22 21 20 19 18 17 16 15 13 11 11 11 10 11 11 11 11 10 10 10 9 9 8 7 8 7 7 7 7 8 9 9 9 10 10 10 12 13 12 12 13 14 13 9 8 9 11 14 15 15 15 14 12 12 12
6 8 6 7 9 8 8 8 7 6 7 8 9 11 13 15 15 16 14 10 10 15 21 27 30 30 29 27 26 24 23 23 22 20 18 17 16 14 13 12 11 11 10 10 11 11 11 10 10 10 8 8 8 8 8 7 7 7 7 7 7 7 6 7 9 9 10 12 12 12 12 12 13 10 9 9 10 14 16 15 16 14 13 13 13
6 7 6 7 8 7 7 6 7 8 7 7 10 12 14 14 11 15 18 17 18 22 27 30 31 30 29 27 27 26 26 26 24 21 19 18 17 15 14 13 11 11 11 11 11 11 11 10 9 9 8 7 7 7 7 8 7 7 7 6 5 6 6 6 8 7 8 10 11 11 11 11 12 11 9 9 11 16 18 16 14 13 12 13 13
6 5 3 4 4 4 5 6 6 7 6 9 12 12 14 14 13 16 20 21 24 27 30 33 32 30 29 28 28 27 27 26 23 21 20 20 19 17 15 14 12 12 11 12 11 11 12 11 9 9 8 7 7 6 6 8 8 8 8 7 7 7 5 6 7 6 7 8 8 9 11 12 12 11 12 11 11 15 18 16 14 12 11 11 12
6 3 3 4 4 3 5 6 6 6 8 12 12 12 13 14 13 15 18 20 23 27 30 33 32 30 29 29 29 28 28 26 23 22 21 21 21 19 17 14 13 12 12 12 12 11 11 10 8 8 8 7 7 6 5 6 7 8 7 8 8 7 6 6 6 6 7 7 8 9 10 11 11 10 12 12 11 13 17 19 16 12 11 11 12
6 5 4 4 5 4 5 5 5 6 9 11 11 11 12 13 13 13 15 17 19 23 29 31 30 28 28 29 31 30 28 26 22 21 21 21 21 18 16 15 13 12 11 11 11 10 10 9 8 8 7 7 7 6 5 5 7 7 7 7 7 7 7 7 7 6 7 7 8 9 9 10 10 10 12 12 11 12 16 19 16 11 9 11 12
7 6 4 4 3 3 3 4 4 5 7 9 10 9 9 12 13 13 15 16 18 22 27 31 30 27 28 33 33 30 27 23 20 21 22 22 20 16 15 14 13 11 11 11 10 10 10 9 9 8 8 7 6 5 5 5 5 6 6 6 6 6 6 6 7 7 7 7 8 8 9 10 10 11 12 12 11 11 15 18 15 10 9 12 13
10 8 6 5 3 1 2 4 2 2 4 8 9 9 9 10 12 14 16 17 19 22 26 30 29 27 29 33 31 27 24 21 21 23 23 21 19 16 15 14 13 12 11 10 10 10 10 9 9 8 8 8 6 5 5 5 5 5 6 6 5 5 5 6 6 6 6 7 8 8 9 10 11 11 11 12 12 12 15 17 15 9 9 12 12
12 9 7 6 4 2 3 3 1 1 4 6 7 8 11 12 13 15 17 18 21 22 23 26 27 28 30 30 27 26 23 20 22 25 25 22 19 17 16 14 13 12 11 10 10 10 9 9 8 8 8 9 7 6 5 5 5 5 5 6 6 6 6 6 5 4 6 8 8 9 9 10 11 10 11 13 14 14 16 16 13 9 9 11 10
12 10 8 7 6 3 2 1 1 1 4 7 8 8 9 11 12 15 17 19 21 20 21 24 26 29 30 28 27 26 23 22 25 25 23 20 18 17 16 14 13 12 11 10 10 10 9 8 8 8 8 9 8 7 6 5 5 5 5 5 6 6 6 5 4 4 5 6 8 10 10 10 10 10 12 13 13 16 17 15 12 10 10 11 9
10 9 8 8 8 5 1 2 3 2 3 5 8 9 8 8 11 14 17 20 21 21 23 26 29 30 30 29 30 27 23 24 26 24 21 19 18 17 15 14 13 11 10 10 10 10 9 8 8 7 7 8 8 7 6 6 6 6 6 6 6 6 6 5 5 5 5 7 9 10 10 11 11 11 12 13 13 15 15 14 13 12 10 11 9
9 8 8 8 7 4 1 0 1 0 3 5 8 11 12 11 11 14 16 18 22 25 27 30 31 30 29 31 31 28 25 24 23 21 19 19 17 16 15 14 12 11 10 10 10 10 10 9 8 8 7 7 7 6 6 6 6 6 6 7 7 7 6 6 5 4 4 6 9 9 10 11 12 11 12 14 14 14 13 13 13 12 11 11 11
9 9 9 8 6 5 4 4 4 5 5 4 7 11 12 12 12 14 17 17 20 26 28 29 29 27 27 29 27 27 26 24 22 21 19 19 17 16 15 14 11 11 11 11 10 10 10 8 8 7 7 7 6 5 5 5 5 6 6 7 8 8 7 6 6 5 3 5 9 9 9 10 10 11 12 13 14 14 13 12 13 12 11 11 12
11 10 10 10 7 7 6 5 5 6 4 2 5 8 9 11 11 13 17 18 18 22 26 28 27 25 26 26 23 23 25 23 20 20 20 18 16 15 14 13 11 11 11 11 10 10 9 8 8 7 6 6 6 6 7 7 7 6 6 7 8 8 8 7 7 6 3 3 7 10 9 10 10 11 12 13 13 13 12 12 12 12 11 11 12
13 12 11 10 8 6 4 3 3 5 3 2 4 6 8 12 11 11 16 17 15 20 26 29 28 26 25 25 23 22 24 22 19 20 20 18 16 15 15 14 12 12 12 11 10 10 9 8 8 7 6 7 8 10 11 11 11 9 6 6 7 8 8 9 8 7 5 4 5 9 12 12 11 12 15 15 14 14 13 12 11 12 11 10 11
14 13 11 10 8 6 5 3 3 5 3 4 7 7 9 12 10 10 14 18 17 20 25 27 27 27 25 26 27 25 24 24 21 20 20 18 16 17 16 15 14 13 13 12 11 10 8 7 7 7 7 9 12 12 13 13 12 11 8 6 7 7 8 9 8 8 8 6 5 8 12 12 10 11 14 15 16 16 15 13 12 12 12 11 10
14 13 11 10 8 6 5 3 2 5 6 6 7 8 9 13 13 12 14 21 23 23 24 26 26 26 26 28 29 27 26 25 23 21 20 18 18 19 19 18 17 17 16 15 13 11 9 9 8 6 6 7 9 10 12 13 12 12 11 9 6 6 8 9 9 9 9 8 7 7 10 11 10 10 11 13 14 14 13 14 14 13 13 13 12
13 13 12 10 9 6 4 2 1 4 6 7 8 8 8 12 15 15 18 24 27 26 24 24 22 20 23 26 25 24 27 27 27 26 24 22 23 24 23 20 19 19 18 16 13 11 10 10 8 7 6 6 7 7 7 9 10 12 13 11 7 4 7 8 8 8 8 9 9 8 8 10 10 10 11 11 12 12 11 12 13 13 13 14 14
13 13 12 11 10 8 5 3 4 6 7 7 10 12 11 11 13 17 21 25 27 26 24 24 21 18 21 23 22 24 28 29 28 26 25 25 26 24 22 21 18 16 14 12 10 9 9 10 9 9 9 8 7 6 5 5 7 8 10 10 7 3 6 7 8 8 7 8 9 9 9 9 10 12 12 11 11 12 13 12 13 14 14 15 16
14 14 13 11 10 9 9 7 8 11 12 12 13 13 13 10 9 14 20 22 22 22 22 24 24 21 20 20 18 21 26 27 25 24 24 25 24 21 21 18 12 10 11 11 9 9 10 11 11 11 11 8 6 6 6 5 5 5 6 8 7 5 6 6 7 8 7 7 8 9 9 9 10 12 13 11 9 10 13 14 14 15 16 17 17
15 16 15 14 12 11 12 12 11 12 15 18 19 16 15 14 14 15 18 20 20 21 22 23 22 21 19 16 14 17 23 24 24 24 24 23 23 22 20 15 9 7 9 10 8 9 10 11 11 11 10 8 6 5 4 5 5 5 5 6 7 6 5 5 6 7 7 7 7 8 8 7 7 8 11 12 11 9 10 12 13 14 15 16 18
16 17 18 18 16 15 14 14 14 15 18 21 22 19 17 16 18 19 20 20 21 21 21 20 18 17 15 14 14 18 23 24 23 23 22 21 21 19 15 10 8 7 9 10 10 10 11 11 11 9 8 7 6 6 5 4 4 4 5 5 5 4 4 5 6 7 7 6 7 8 8 6 6 8 11 14 14 14 14 13 12 13 14 15 16
17 17 18 18 19 18 17 15 14 16 19 21 22 22 19 17 18 22 24 23 23 23 21 19 17 15 13 13 14 16 19 20 21 20 19 17 15 13 11 10 10 10 10 11 11 11 12 11 10 9 8 7 6 6 6 6 6 6 5 4 3 3 4 5 5 6 6 6 8 9 9 9 11 13 15 16 16 16 17 17 15 15 16 17 18
19 19 18 19 19 19 19 18 17 18 18 19 21 23 22 19 19 22 24 25 25 24 22 20 19 16 15 14 14 16 17 17 17 16 15 14 12 11 11 11 11 11 10 11 11 11 11 10 8 8 7 6 6 6 6 7 7 7 7 7 4 2 3 4 4 4 5 7 10 12 11 12 14 15 16 18 17 17 18 19 19 19 18 19 20
21 20 21 22 21 19 19 21 21 20 19 17 18 22 24 23 22 21 22 24 25 23 22 21 19 17 17 17 17 17 16 16 16 16 15 15 14 12 12 11 10 9 9 9 9 9 8 7 6 6 6 6 6 6 6 7 7 7 8 9 8 5 5 7 6 5 5 7 11 13 14 15 17 17 18 20 20 20 20 21 22 23 23 23 23
19 18 19 20 19 20 21 23 24 22 18 16 15 18 22 24 24 24 24 24 23 21 21 20 19 17 16 18 18 17 16 15 16 16 15 14 12 10 10 10 9 7 7 7 6 5 5 5 5 5 6 5 5 5 5 5 6 7 8 9 9 9 9 10 9 9 7 6 9 14 16 18 19 20 21 22 23 23 24 24 25 26 27 27 27
17 16 15 16 16 18 20 23 23 21 19 16 15 16 20 21 21 22 23 22 19 19 19 18 18 17 16 16 17 17 16 15 14 14 13 11 10 9 8 8 7 6 5 5 4 3 4 5 6 6 6 6 6 7 8 8 8 9 10 11 11 10 11 12 12 13 11 8 7 11 16 19 22 23 23 23 24 25 26 27 27 28 29 30 31
19 18 17 16 15 14 15 17 18 18 18 17 16 16 18 19 20 21 21 19 17 17 17 16 16 15 15 14 14 14 14 14 14 13 12 11 10 9 8 7 6 5 5 4 4 4 4 5 6 7 8 9 9 10 11 11 11 12 13 14 14 14 15 15 15 16 16 13 10 12 19 24 26 27 27 26 27 27 29 30 30 31 31 32 33
21 21 20 19 17 15 14 14 13 13 14 15 15 16 17 18 19 20 18 17 16 15 14 14 14 14 13 12 11 11 11 11 11 10 9 8 8 7 6 5 4 3 1 2 2 2 3 2 3 4 7 9 11 11 12 12 13 14 14 15 16 16 17 18 18 18 19 19 19 22 27 29 29 30 31 31 31 32 32 33 33 34 34 35 36
16 20 21 21 21 19 18 16 14 12 12 13 14 14 15 16 18 17 16 16 16 14 13 12 12 12 11 10 9 9 8 8 8 8 7 6 6 5 4 3 4 4 3 1 1 1 1 1 1 1 1 5 9 12 12 11 13 14 15 15 16 17 18 18 18 19 20 21 24 26 29 29 29 30 31 31 32 33 33 34 34 34 35 36 37
12 15 18 20 21 20 18 18 17 15 14 14 14 13 13 15 16 15 14 14 14 13 12 12 11 11 11 10 9 9 7 7 7 7 7 6 6 5 4 3 3 3 3 2 2 2 2 2 2 2 1 1 5 10 12 12 12 12 12 13 13 14 15 16 17 18 20 22 24 25 26 27 27 28 28 29 30 30 31 32 32 32 34 34 35
10 11 13 15 17 18 17 16 16 16 15 15 15 14 13 13 14 13 13 13 13 12 12 11 11 11 10 10 10 9 9 8 7 7 6 6 6 6 5 4 4 3 3 3 2 2 2 2 1 2 1 1 1 3 6 10 10 10 10 11 11 11 12 12 13 15 18 19 20 20 21 22 23 23 23 24 25 25 27 28 28 28 29 30 30
10 11 11 12 15 16 16 15 15 14 13 12 11 12 12 11 10 10 10 10 10 10 9 9 10 9 9 9 9 9 9 9 8 7 6 6 6 6 4 2 3 3 3 3 4 3 3 3 3 2 1 2 2 2 5 9 10 9 9 10 10 10 11 11 11 13 15 16 16 17 17 17 17 17 17 18 18 18 18 19 18 18 19 19 20
11 11 11 12 13 13 13 12 12 12 12 11 9 9 9 8 7 7 7 6 7 7 8 8 8 8 8 8 7 7 7 8 7 6 5 5 4 3 2 1 1 2 2 3 3 1 3 4 3 2 2 3 1 5 8 9 9 7 8 9 8 9 9 9 9 11 12 14 14 14 13 13 13 13 14 14 14 14 14 14 13 13 14 15 16
9 9 10 11 11 10 9 8 9 10 10 10 10 8 7 7 7 7 7 7 8 8 8 7 7 7 8 8 7 6 6 6 6 6 6 6 5 4 3 3 2 1 1 3 3 3 4 5 3 3 4 4 3 6 7 8 8 8 8 8 8 8 9 9 10 11 11 12 12 11 10 10 10 10 10 11 11 12 12 12 13 14 14 15 15
5 5 6 7 7 6 6 7 8 8 8 9 10 10 9 8 7 7 8 9 10 10 10 8 6 7 9 9 8 7 7 7 7 6 6 7 7 6 5 4 3 2 1 0 1 1 2 2 2 2 3 2 1 4 6 8 8 8 8 7 8 9 8 9 11 11 11 12 13 12 9 9 9 9 10 11 11 12 13 13 14 14 15 15 16
1 2 2 3 4 4 5 6 7 6 6 7 8 10 10 10 9 9 9 10 9 9 9 9 8 7 10 9 8 7 8 7 7 6 6 5 7 8 8 6 4 3 3 3 3 3 3 3 2 2 2 2 3 4 6 7 8 8 7 7 7 8 9 9 10 10 11 12 12 10 10 10 10 10 11 11 11 12 13 14 14 14 14 15 16
Wind_Direction
201 210 217 210 207 206 201 201 208 212 208 207 208 208 207 208 208 204 198 199 198 193 192 196 196 193 187 186 194 198 194 189 189 191 190 192 190 190 193 192 198 205 205 207 200 188 193 210 216 202 191 199 200 199 204 207 214 215 209 209 203 189 202 216 205 203 198 180 177 179 177 179 182 186 191 175 137 144 157 155 152 153 151 148 146
205 218 220 215 212 210 210 205 204 210 211 210 211 210 210 210 208 205 200 198 196 193 190 194 198 195 188 188 193 195 197 197 194 192 194 198 195 195 198 193 198 208 205 203 197 194 201 209 215 202 190 199 199 201 212 209 206 211 208 203 200 189 202 217 208 205 206 184 175 178 177 179 187 172 167 173 149 148 159 153 146 144 145 151 155
204 226 223 215 217 214 215 212 207 211 215 214 213 213 215 214 210 205 201 196 196 199 196 198 199 195 189 185 188 195 201 203 201 201 204 205 201 198 199 194 198 204 199 199 200 201 208 211 211 204 193 198 201 203 211 207 203 207 198 189 196 192 204 224 214 200 200 188 178 176 178 175 174 174 167 173 164 161 165 157 148 140 143 151 149
204 217 220 214 218 217 215 216 214 215 218 218 217 218 218 216 210 203 203 203 202 202 198 198 196 191 196 192 189 199 207 208 208 211 208 206 208 204 196 194 196 195 193 200 208 210 213 211 208 204 197 201 206 204 205 206 205 208 198 187 192 196 204 216 208 200 196 194 187 173 178 178 166 174 168 147 157 169 165 158 150 142 146 148 140
214 213 213 215 219 218 217 219 219 218 219 219 219 220 219 214 208 205 213 213 206 203 199 202 200 198 206 199 190 199 209 212 212 210 207 207 216 214 199 194 193 189 195 202 210 216 214 207 205 204 203 205 203 200 204 209 207 207 204 196 191 193 203 206 201 203 199 191 192 182 182 192 182 174 164 149 163 169 157 149 142 137 142 142 134
213 214 210 219 224 222 220 219 219 220 221 220 220 222 219 214 210 210 216 211 202 202 202 207 210 206 208 198 193 200 205 210 209 205 208 211 214 210 196 193 194 191 198 201 203 212 213 207 204 201 209 209 196 191 199 208 209 206 208 202 192 190 197 200 196 202 201 189 195 205 204 198 182 172 162 157 162 166 162 151 147 143 139 144 139
199 204 212 223 226 223 220 219 220 221 222 222 223 223 217 214 211 217 224 213 197 199 199 203 210 208 205 200 201 206 204 204 203 201 211 215 209 201 194 194 196 194 197 198 199 206 208 208 204 197 205 208 196 192 195 203 206 203 210 207 194 195 194 191 200 206 203 196 202 214 213 200 184 180 171 161 157 164 178 169 169 160 137 144 144
193 187 202 217 222 220 217 221 223 223 227 227 224 216 211 215 211 219 232 214 199 205 198 196 206 207 202 201 205 208 201 197 197 199 213 217 208 198 197 194 192 191 193 193 194 200 200 204 205 197 198 199 197 198 196 202 202 197 211 207 195 208 203 192 200 204 199 202 209 212 206 190 189 196 186 175 167 163 168 164 169 171 150 137 135
197 178 191 211 219 216 215 222 225 228 232 230 226 216 204 210 215 228 245 228 208 211 199 191 199 203 200 198 198 199 197 194 192 193 204 214 208 197 196 190 185 185 187 189 191 192 189 191 193 190 194 191 191 198 197 201 198 197 211 208 202 218 217 201 199 199 200 199 197 201 195 173 173 192 200 193 181 166 163 160 159 165 154 135 129
200 176 190 209 220 219 217 224 228 231 233 231 233 226 199 198 216 231 241 234 205 200 194 188 193 201 203 198 195 196 198 198 195 194 200 211 210 199 192 184 181 182 184 187 188 186 183 186 187 183 187 184 181 193 198 199 197 200 212 213 211 216 214 210 207 206 206 193 184 198 198 180 171 180 202 196 180 170 165 162 160 157 146 134 134
201 183 194 205 212 215 215 221 223 226 229 231 238 232 209 212 224 230 233 222 187 183 189 189 193 202 204 201 200 198 199 199 198 198 199 208 212 202 189 181 182 183 186 188 184 182 183 186 187 184 184 181 180 190 192 191 193 200 212 215 215 215 210 212 213 211 208 197 196 204 199 191 180 178 192 184 173 173 162 155 156 156 145 134 140
194 185 195 198 199 197 202 207 206 216 217 198 182 175 194 211 217 207 190 173 154 164 187 194 195 201 201 202 202 198 198 199 197 196 194 200 207 201 187 181 183 184 187 190 183 181 183 185 188 186 184 182 185 191 186 185 190 198 214 218 214 215 213 208 207 212 212 206 209 210 206 202 194 192 198 188 178 171 160 158 157 153 146 141 149
183 190 193 191 190 188 192 189 185 212 201 152 134 133 163 197 199 156 145 154 157 159 188 201 197 196 196 197 197 195 197 196 195 195 193 197 200 192 182 178 181 183 187 192 188 184 184 185 187 187 187 189 191 192 184 183 192 196 211 221 216 214 216 211 208 214 214 208 208 209 210 210 206 206 203 194 190 178 165 163 160 155 149 148 154
182 184 181 186 191 188 187 184 186 201 175 154 168 182 174 179 172 151 150 172 183 166 184 203 198 193 192 189 190 194 195 194 196 194 190 194 191 180 174 172 175 180 186 193 191 187 189 188 188 190 192 193 193 195 188 186 198 197 200 218 218 213 219 221 218 219 213 208 208 209 209 208 207 207 194 188 189 180 171 165 160 155 152 151 155
174 175 184 195 194 182 167 171 184 188 170 161 179 197 187 165 153 153 158 178 190 176 181 194 195 192 188 183 185 193 193 191 194 191 185 187 183 173 169 168 173 178 183 191 187 185 192 191 190 195 198 194 190 193 189 188 200 192 192 217 221 217 224 224 223 226 216 209 211 213 213 208 205 206 194 190 185 176 173 172 165 157 156 158 157
143 148 156 167 171 164 154 168 183 187 182 174 181 191 181 165 157 165 174 178 187 185 181 185 189 189 187 183 184 188 189 190 192 189 183 179 175 171 168 167 173 174 175 179 176 181 188 184 185 192 196 193 193 194 190 192 198 191 199 226 223 217 225 219 224 233 219 214 219 216 216 212 206 204 197 197 195 179 172 173 171 165 162 161 157
89 102 112 138 149 144 143 160 175 186 195 189 190 189 180 179 179 178 178 176 181 185 181 180 182 183 184 183 182 181 184 188 189 186 182 176 170 169 169 170 170 167 170 171 168 175 178 172 178 188 185 186 193 195 194 198 196 188 201 221 219 216 219 214 225 232 220 223 225 214 213 214 207 207 206 202 196 183 171 169 176 175 168 162 161
65 78 115 152 146 139 147 161 177 191 195 187 192 195 194 201 201 185 181 183 185 185 181 179 180 180 179 180 179 177 180 185 184 181 180 174 171 172 171 169 166 164 169 169 163 167 170 166 174 186 183 183 185 183 189 199 195 190 194 197 208 221 220 216 227 230 223 227 227 214 210 210 204 207 212 202 188 186 180 174 175 176 175 171 167
84 104 143 151 143 160 168 171 181 179 177 188 201 205 199 197 196 189 188 188 186 182 179 179 182 181 180 181 179 176 181 186 183 179 177 174 176 177 172 167 166 168 171 168 160 160 164 161 165 176 180 184 185 179 185 195 189 190 193 189 199 208 202 210 221 228 227 221 221 219 208 203 200 203 208 197 178 181 182 175 168 169 182 182 175
93 107 128 134 140 162 168 171 185 180 180 194 205 206 191 180 182 190 192 190 184 179 177 179 181 181 182 182 177 176 183 187 184 177 174 177 179 174 169 168 166 168 171 165 158 159 160 156 157 166 174 184 187 178 181 191 188 188 188 189 200 200 196 206 209 217 227 218 220 222 205 201 204 197 197 194 181 175 178 176 168 167 185 184 185
78 79 83 90 108 141 156 161 180 186 190 191 187 189 184 175 177 182 189 192 184 177 177 178 178 180 182 178 175 178 182 182 181 177 175 178 175 167 167 169 164 166 168 162 157 161 162 160 161 166 173 184 188 182 182 185 184 182 178 186 200 194 194 209 207 210 218 214 223 220 203 205 206 193 186 187 185 177 176 177 172 173 186 183 189
57 54 55 54 43 49 116 121 135 182 196 187 178 180 188 188 183 181 188 193 186 178 176 176 177 179 180 177 174 176 177 177 178 177 177 177 171 166 170 166 161 165 164 157 159 162 161 164 167 168 175 182 184 189 185 171 174 178 169 172 182 177 186 202 204 208 208 206 215 211 203 207 199 189 184 182 184 181 174 173 172 175 180 179 187
48 41 40 38 29 61 119 110 93 215 215 206 201 195 196 197 188 185 190 191 186 180 175 176 177 176 176 175 173 172 172 174 176 175 177 175 168 167 169 164 162 163 158 158 164 162 160 165 170 172 176 178 179 187 183 173 184 186 172 172 172 171 186 188 185 207 211 208 207 202 205 207 192 186 190 185 185 186 177 169 171 177 171 175 189
45 39 34 28 24 49 139 108 29 266 222 212 210 200 194 194 188 189 194 189 182 178 177 177 174 170 173 175 172 171 170 170 172 174 176 172 167 168 166 161 161 159 158 165 166 161 161 166 171 174 176 175 178 186 181 176 186 183 178 186 179 173 181 177 180 205 211 214 210 202 204 202 190 189 193 188 188 185 175 165 168 175 169 174 189
41 37 33 28 22 18 347 360 22 334 256 223 207 188 176 180 183 188 191 184 177 177 179 178 172 170 175 176 174 171 168 168 171 172 172 170 167 166 164 161 161 159 161 165 161 157 160 162 162 168 174 173 176 184 180 180 190 184 178 184 183 180 179 179 194 204 206 215 208 202 207 200 191 194 191 184 181 174 168 169 174 176 171 174 182
42 35 29 30 27 27 46 198 75 144 252 237 201 178 172 182 192 193 188 182 181 183 181 177 174 174 174 176 177 173 164 166 171 169 169 172 168 163 164 161 160 166 165 158 153 152 153 156 158 161 167 170 174 183 182 185 195 190 182 183 183 184 184 188 200 199 211 217 196 192 211 205 192 193 185 176 175 172 172 179 181 180 178 175 177
45 38 31 34 46 76 129 182 197 198 214 207 177 171 170 178 188 189 184 180 181 183 181 176 175 174 172 175 180 176 167 167 173 172 171 172 169 167 166 161 163 173 164 149 150 151 148 153 157 157 163 166 165 174 181 188 200 199 194 191 186 185 185 188 193 188 203 216 191 186 210 210 193 186 178 172 174 175 176 181 181 184 186 181 181
38 35 32 35 50 80 114 159 190 206 217 175 166 170 160 162 173 179 179 177 174 175 175 174 173 174 175 175 174 170 168 168 172 177 178 174 172 169 162 158 163 164 153 149 151 148 145 152 157 157 158 156 158 177 185 182 186 195 199 198 194 192 192 193 194 192 191 202 191 183 192 206 196 176 170 174 179 180 180 182 183 184 186 186 189
28 28 26 25 33 50 70 106 164 206 222 156 175 168 144 151 160 162 166 166 161 163 168 171 173 175 177 178 178 176 177 179 178 179 180 177 172 165 159 163 165 153 146 149 147 145 147 150 154 153 153 164 181 194 190 177 173 176 183 200 204 198 202 207 203 202 201 194 195 191 191 201 199 181 177 179 180 183 183 181 186 192 192 192 194
26 24 20 17 20 26 33 67 167 210 204 154 157 156 145 146 142 134 149 154 149 153 159 163 169 170 165 169 176 179 182 186 184 177 175 173 167 160 157 158 155 147 144 143 139 140 141 138 147 160 176 194 202 203 195 184 177 169 163 182 205 203 206 212 208 210 211 196 193 208 204 200 197 191 189 185 184 188 188 184 190 199 200 201 206
29 26 21 17 19 19 16 36 174 213 214 183 165 167 159 145 130 114 133 150 149 148 153 157 164 167 162 164 170 167 165 170 171 165 162 159 155 155 158 161 161 159 154 148 143 142 145 153 169 189 208 210 208 206 200 195 187 175 162 159 179 203 209 212 209 211 214 203 196 213 213 201 197 196 193 190 191 194 195 193 195 198 198 199 204
31 29 26 24 25 23 19 30 126 189 200 188 177 181 172 153 145 131 129 141 142 137 140 147 154 162 165 170 175 170 162 162 163 163 164 166 166 166 167 170 168 162 155 152 153 158 168 181 197 212 206 193 189 190 191 193 189 186 180 164 154 195 213 211 212 212 211 207 202 209 212 201 197 200 198 200 206 210 212 211 210 212 212 206 204
34 33 32 32 32 32 39 64 116 130 132 138 150 160 160 156 155 142 130 127 125 120 120 127 133 140 153 164 172 173 172 172 172 172 175 178 177 171 165 163 163 165 172 179 184 194 203 208 214 209 193 183 178 169 163 176 178 184 192 175 152 183 217 210 212 213 211 209 206 211 217 210 208 213 210 211 223 231 232 230 227 228 228 224 221
43 42 39 40 44 51 62 84 114 113 105 107 116 126 134 135 132 131 128 125 123 124 124 123 124 128 138 149 157 166 176 183 183 183 183 182 180 174 170 174 186 202 206 206 211 219 217 213 215 211 202 193 184 170 163 171 169 170 185 177 162 182 210 206 207 208 206 206 206 210 217 219 224 230 226 218 223 241 249 246 240 239 239 239 239
50 50 51 54 59 67 77 92 108 108 103 104 103 102 111 117 115 120 128 127 123 125 128 127 128 131 134 136 140 157 173 180 181 184 185 184 182 180 185 202 225 216 195 195 203 209 208 208 211 212 207 201 195 188 175 169 172 172 175 182 186 194 203 209 215 214 211 213 213 209 209 214 225 235 237 230 221 228 247 251 248 248 248 249 251
57 57 60 64 68 69 75 90 105 109 105 104 105 106 110 117 121 125 130 130 123 120 123 126 129 131 132 134 141 156 168 173 176 180 181 181 182 184 191 205 207 184 179 185 190 194 198 200 200 197 195 196 199 205 204 196 197 193 184 191 202 203 205 215 221 223 222 227 231 224 221 230 239 239 243 244 235 230 235 244 248 251 251 251 253
65 62 61 65 71 73 77 87 99 104 104 107 110 109 106 110 115 117 119 121 119 117 118 119 120 122 127 133 143 155 165 174 179 180 179 179 183 183 178 176 177 177 179 181 183 189 192 192 193 191 187 190 196 202 209 212 213 210 208 211 216 226 228 221 222 230 226 224 232 230 225 231 239 240 242 248 250 246 245 248 252 254 255 254 254
73 69 65 65 69 71 77 86 89 89 93 105 114 114 113 113 109 106 108 109 108 108 109 111 113 117 123 127 134 145 154 163 170 171 170 169 170 167 161 163 173 179 180 180 182 188 188 185 187 192 193 198 205 208 214 220 222 222 224 220 209 229 252 229 230 253 250 242 246 245 240 239 242 246 249 253 257 257 254 254 255 257 258 260 262
76 74 71 71 72 71 73 78 79 78 79 87 103 113 119 119 111 105 105 105 103 103 105 110 114 119 123 124 125 131 135 140 145 149 149 150 154 158 161 165 173 180 180 178 183 195 196 185 186 203 210 212 219 226 229 233 234 233 238 233 217 207 226 228 227 245 258 260 264 263 258 254 253 254 256 258 260 260 259 258 258 259 260 261 262
71 70 69 71 74 73 72 70 69 70 73 76 85 98 107 111 111 109 105 101 101 102 106 113 119 123 127 127 127 128 130 133 139 142 142 144 151 159 164 167 171 175 175 173 179 198 203 197 204 224 229 224 225 233 237 244 247 246 253 256 241 227 239 248 248 252 257 268 279 276 270 266 264 261 260 261 263 263 263 262 261 262 264 264 262
65 62 61 62 65 66 67 69 67 66 67 68 73 83 89 94 101 103 100 98 100 105 110 114 118 121 124 124 124 125 127 128 132 135 135 137 141 144 147 147 147 149 157 166 171 176 186 204 221 232 243 248 250 251 250 251 256 257 259 265 262 254 255 258 257 258 257 256 272 278 272 267 267 267 264 264 265 266 266 266 266 265 265 266 266
63 60 57 58 62 63 63 67 68 67 65 62 66 74 80 85 88 88 89 93 98 103 108 111 115 118 118 118 119 121 125 128 130 133 135 135 137 140 144 147 151 159 174 187 202 215 221 235 246 252 259 260 257 259 262 260 259 260 261 264 267 266 262 260 258 259 257 249 245 254 258 260 264 268 269 268 267 266 266 266 265 265 265 265 265
60 57 54 53 58 63 65 66 68 73 73 68 66 66 70 77 79 76 78 85 90 93 99 102 104 104 105 108 111 114 118 122 124 126 128 131 135 136 139 147 146 137 157 194 203 227 244 266 281 284 287 283 274 270 271 272 271 271 269 268 269 269 268 267 265 264 262 257 250 251 256 261 266 270 272 273 273 272 270 269 268 267 266 266 266
55 54 52 49 51 55 60 64 67 72 77 74 70 66 65 68 70 70 73 77 79 81 85 89 93 95 95 97 98 102 109 114 116 118 117 119 122 112 103 121 122 106 93 91 110 134 151 131 138 180 303 302 293 287 282 279 278 277 275 275 275 274 272 273 272 271 270 267 264 264 268 271 273 274 275 275 275 275 275 274 273 272 271 270 270
56 54 52 49 49 49 52 57 61 64 67 66 63 63 62 61 59 59 63 68 70 73 73 75 82 90 95 97 97 97 102 109 115 118 116 116 113 98 83 84 92 96 104 102 101 113 119 126 142 134 125 272 296 301 296 287 283 283 283 281 279 278 276 275 274 272 269 268 270 272 274 276 276 276 276 276 275 276 276 275 275 275 274 274 273
57 52 49 47 47 48 50 53 55 58 61 59 56 56 58 57 52 48 48 51 54 58 59 57 59 66 75 85 92 96 98 102 107 108 111 114 102 77 62 66 65 58 64 72 69 77 86 87 96 106 115 290 332 332 303 296 300 304 300 295 293 290 286 283 280 278 276 275 276 277 279 280 280 280 280 279 278 277 277 278 279 278 278 278 279
60 54 53 49 47 48 50 51 53 55 56 57 57 57 57 57 56 53 50 46 44 47 51 48 44 45 52 58 65 71 74 78 83 87 95 105 101 88 75 91 113 112 99 83 69 69 86 87 67 70 72 38 71 168 268 301 321 325 315 311 310 307 305 306 303 299 299 302 302 301 300 299 300 303 305 305 303 301 301 303 301 295 294 294 290
59 58 58 57 54 51 48 49 50 50 51 54 57 60 60 58 57 61 64 63 59 55 58 59 52 46 49 53 55 56 57 58 58 53 52 62 72 72 58 46 136 168 170 153 132 137 176 150 101 66 87 93 122 251 277 310 330 331 325 324 323 322 322 322 318 316 318 320 320 321 323 324 323 325 326 323 322 321 320 316 310 300 294 294 288
50 50 51 51 51 49 44 43 43 40 40 42 42 48 56 56 51 48 48 58 67 60 55 65 75 72 63 56 56 61 60 57 52 37 35 43 43 32 32 30 12 321 228 207 202 221 215 189 172 180 169 162 216 274 310 334 338 336 338 338 336 339 340 338 337 339 340 342 348 353 350 339 329 323 320 317 315 313 308 301 299 298 296 293 289
34 34 39 41 43 43 41 43 44 40 35 33 30 32 38 41 45 46 40 42 51 47 36 35 55 81 78 58 47 54 57 57 60 49 33 38 44 41 42 39 24 24 43 205 188 147 151 163 169 171 159 162 289 334 351 350 346 347 346 344 346 349 351 351 350 350 355 6 13 9 347 328 322 320 320 319 318 317 315 311 309 309 305 300 295
22 26 41 43 42 46 44 41 42 42 38 34 31 31 32 32 32 36 38 40 41 36 32 27 25 56 78 65 41 41 49 46 51 52 35 27 30 26 27 34 35 36 53 70 85 96 99 104 105 94 80 54 16 10 6 360 1 1 355 352 354 349 347 351 355 3 16 21 13 353 334 329 329 325 323 322 321 318 317 314 312 310 307 305 302